This is the latest recevied weather packets stored in our database for station/object YD2CLX-13. If no packets are shown the sender has not sent any weather packets the latest 10 day(s).
| Time | Temp. | Humidity | Pressure | Rain* | Wind** | Luminosity | Snow |
|---|---|---|---|---|---|---|---|
| 1777785213 | 13.89° C | 69% | 797.4 hPa | 0 mm | - | - | - |
| 1777784604 | 13.33° C | 69% | 797.5 hPa | 0 mm | - | - | - |
| 1777783386 | 13.33° C | 68% | 797.7 hPa | 0 mm | - | - | - |
| 1777782777 | 13.33° C | 68% | 797.7 hPa | 0 mm | - | - | - |
| 1777782169 | 14.44° C | 69% | 797.8 hPa | 0 mm | - | - | - |
| 1777781561 | 15° C | 69% | 797.9 hPa | 0 mm | - | - | - |
| 1777780950 | 13.89° C | 69% | 798 hPa | 0 mm | - | - | - |
| 1777780341 | 14.44° C | 69% | 798 hPa | 0 mm | - | - | - |
| 1777779733 | 14.44° C | 69% | 798.1 hPa | 0 mm | - | - | - |
| 1777779124 | 13.33° C | 69% | 798.1 hPa | 0 mm | - | - | - |
| 1777778516 | 13.33° C | 69% | 798.2 hPa | 0 mm | - | - | - |
| 1777777906 | 13.33° C | 69% | 798.1 hPa | 0 mm | - | - | - |
| 1777777298 | 13.89° C | 70% | 798.1 hPa | 0 mm | - | - | - |
| 1777776689 | 13.33° C | 70% | 798.3 hPa | 0 mm | - | - | - |
| 1777776081 | 13.89° C | 70% | 798.3 hPa | 0 mm | - | - | - |
| 1777775470 | 13.33° C | 70% | 798.4 hPa | 0 mm | - | - | - |
| 1777774863 | 12.78° C | 69% | 798.3 hPa | 0 mm | - | - | - |
| 1777774243 | 13.33° C | 71% | 798.3 hPa | 0 mm | - | - | - |
| 1777773635 | 12.78° C | 70% | 798.4 hPa | 0 mm | - | - | - |
| 1777773026 | 13.33° C | 70% | 798.3 hPa | 0 mm | - | - | - |
| 1777772418 | 14.44° C | 71% | 798.1 hPa | 0 mm | - | - | - |
| 1777771809 | 13.33° C | 71% | 798 hPa | 0 mm | - | - | - |
| 1777771200 | 12.78° C | 71% | 798.1 hPa | 0 mm | - | - | - |
| 1777769372 | 12.22° C | 71% | 797.7 hPa | 0 mm | - | - | - |
| 1777768766 | 11.67° C | 70% | 797.7 hPa | 0 mm | - | - | - |
* Rain latest hour (hover to see other rain measurements)
** Current wind speed in m/s (hover to see current wind gust speed)